Terminal Aerodrome Forecast
Issued by NWS

Home | Current Version | Previous Version | Text Only | Print | Product List | Glossary Off
Versions: 1 2 3 4 5 6 7 8 9 10 11 12 13 14 15 16

000
FTUS43 KBIS 080500
TAFJMS
TAF
KJMS 080526Z 0806/0906 31012KT P6SM SCT080
     FM081500 33017KT P6SM SCT050 SCT080
     FM090300 36006KT P6SM SKC=

USA.gov is the U.S. government's official web portal to all federal, state and local government web resources and services.